Showing default

OT-FOREST-17 TELPERION, 68988

Orbit data source: Space-Track

OT-FOREST-17 TELPERION, 68988 is a German payload satellite in SSO that was launched on Sun, 03 May 2026 UTC via an FALCON 9 launch vehicle from the Air Force Western Test Range (AFWTR). Payload-class satellites include a variety of spacecraft equipped with specific instruments for various scientific and technological missions. These include communications satellites like Starlink; space stations such as the ISS; scientific satellites like the Hubble; Earth observation satellites from companies like Planet Labs, Umbra, and HawkEye 360; GPS; miniature CubeSats for education and research; and military/defense satellites.

Loading next visibility...
Identifier
68988, 2026-100J
Orbit
SSO
Country
Flag of DEDE / GER
Related business
Manufacturer
OroraTech
Mission
Operational spacecraft
Bus & Motor
CUBESAT 8U, Unknown motor
Mass
~15 kg wet, ~15 kg dry
Launch date (UTC)
2026-05-03 (1 month ago)
Launch vehicle
FALCON 9
Launch site
Air Force Western Test Range (AFWTR)
Object type
Payload
Rocket body
Debris
Shape & HBR
Unknown shape, 14.5 m
Radar Cross Section
Medium (>0.1 m² and <1 m²)

Expand to show TLE details & history
Last TLE update: 10 hours ago

TLE from 10 hours ago
0 OT-FOREST-17 TELPERION
1 68988U 26100J   26168.64383417  .00000883  00000-0  95449-4 0  9991
2 68988  97.7345  66.0087 0007181 139.1781 220.9976 14.90744222  6769
Epoch: 2026-06-17T15:27Z
TLE epoch observation values (Epoch: 2026-06-17T15:27:07.272Z)
Latitude
-0.00005°
Longitude
-71.67016°
Altitude
602.437 km
Speed
7.556 km/s
True Right ascension
04h 24m 02s
True Declination
0° 00' 00"
Sunlit
Object was in daylight at epoch
Visualization orbit readout
Latitude
Unknown
Longitude
Unknown
Altitude
Unknown
Speed
Unknown
Apparent Right ascension
Unknown
Apparent Declination
Unknown
Sunlit
N/A
Visualization observer readout
Local Sidereal Time
12:04:25
Azimuth
Unknown
Elevation
Unknown
Doppler factor
Unknown
Orbital elements
Apogee altitude
597.639 km
Perigee altitude
587.627 km
Semi-major axis
6,970.77 km
Eccentricity
0.00072
Inclination
97.7345°
RAAN
66.0087°
Arg. of periapsis
139.1781°
True anomaly
220.94365°
Mean anomaly
220.9976°
Eccentric anomaly
220.97062°
Mean motion
3.72925 °/min
Orbital period
96.53 mins
BSTAR
0.000095449
Loading maneuver chart data...
Computing Atmospheric mass density...
Loading historical data...
Loading historical data...
Loading historical data...
Loading historical data...
Loading historical data...
Loading historical data...
Loading historical data...

Documentation

Showing up to 5 results
|